| time (UTC) | temp C | wind direction | speed KPH | gust KPH | rain 1hr cm | rain 24hr cm | rain mn cm | humidity % | barometer mb |
| 20260507010006 | 14 | 159 | 3.2 | 14.5 | 0.00 | 0.05 | 0.05 | 96 | 1004.9 |
| 20260507004504 | 14 | 173 | 6.4 | 16.1 | 0.00 | 0.05 | 0.05 | 96 | 1004.8 |
| 20260507003003 | 14 | 185 | 4.8 | 14.5 | 0.00 | 0.05 | 0.05 | 96 | 1004.7 |
| 20260507001501 | 14 | 163 | 6.4 | 14.5 | 0.00 | 0.05 | 0.05 | 97 | 1004.5 |
| 20260507000002 | 14 | 149 | 4.8 | 12.9 | 0.00 | 0.05 | 0.05 | 97 | 1004.4 |
| 20260506234603 | 14 | 181 | 3.2 | 12.9 | 0.03 | 0.05 | 0.05 | 97 | 1004.4 |
| 20260506233059 | 14 | 170 | 4.8 | 11.3 | 0.03 | 0.05 | 0.05 | 96 | 1004.3 |
| 20260506231602 | 14 | 163 | 4.8 | 19.3 | 0.03 | 0.05 | 0.05 | 96 | 1004.4 |
| 20260506230058 | 14 | 172 | 3.2 | 12.9 | 0.03 | 0.05 | 0.05 | 96 | 1004.4 |
| 20260506224556 | 14 | 166 | 1.6 | 11.3 | 0.00 | 0.03 | 0.03 | 95 | 1004.4 |
| 20260506223055 | 14 | 148 | 4.8 | 12.9 | 0.00 | 0.03 | 0.03 | 94 | 1004.5 |
| 20260506221553 | 14 | 144 | 3.2 | 19.3 | 0.00 | 0.03 | 0.03 | 93 | 1004.7 |
| 20260506220054 | 15 | 136 | 4.8 | 12.9 | 0.00 | 0.03 | 0.03 | 93 | 1004.8 |
| 20260506214602 | 15 | 179 | 4.8 | 16.1 | 0.00 | 0.03 | 0.03 | 92 | 1004.9 |
| 20260506213051 | 15 | 255 | 1.6 | 12.9 | 0.00 | 0.03 | 0.03 | 91 | 1005.1 |
| 20260506211550 | 15 | 105 | 6.4 | 19.3 | 0.00 | 0.03 | 0.03 | 90 | 1005.1 |
| 20260506210050 | 15 | 211 | 9.7 | 25.7 | 0.00 | 0.03 | 0.03 | 90 | 1005.3 |
| 20260506204551 | 15 | 153 | 6.4 | 16.1 | 0.00 | 0.03 | 0.03 | 89 | 1005.4 |
| 20260506203047 | 15 | 150 | 4.8 | 11.3 | 0.00 | 0.03 | 0.03 | 88 | 1005.4 |
| 20260506201547 | 15 | 169 | 6.4 | 20.9 | 0.03 | 0.03 | 0.03 | 88 | 1005.4 |
| 20260506200049 | 15 | 194 | 3.2 | 24.1 | 0.03 | 0.03 | 0.03 | 89 | 1005.4 |
| 20260506194546 | 15 | 171 | 8.0 | 20.9 | 0.03 | 0.03 | 0.03 | 88 | 1005.4 |
| 20260506193052 | 15 | 176 | 6.4 | 19.3 | 0.03 | 0.03 | 0.03 | 88 | 1005.5 |
| 20260506191548 | 16 | 159 | 4.8 | 22.5 | 0.00 | 0.00 | 0.00 | 85 | 1005.5 |
| 20260506190041 | 16 | 157 | 8.0 | 20.9 | 0.00 | 0.00 | 0.00 | 83 | 1005.5 |
| 20260506184543 | 17 | 149 | 3.2 | 22.5 | 0.00 | 0.00 | 0.00 | 79 | 1005.8 |
| 20260506183040 | 18 | 218 | 6.4 | 20.9 | 0.00 | 0.00 | 0.00 | 73 | 1006.2 |
| 20260506181549 | 18 | 194 | 8.0 | 24.1 | 0.00 | 0.00 | 0.00 | 68 | 1005.9 |
| 20260506180055 | 20 | 190 | 9.7 | 24.1 | 0.00 | 0.00 | 0.00 | 63 | 1005.9 |
| 20260506174539 | 20 | 207 | 8.0 | 33.8 | 0.00 | 0.00 | 0.00 | 59 | 1005.9 |
| 20260506173042 | 21 | 159 | 16.1 | 35.4 | 0.00 | 0.00 | 0.00 | 55 | 1005.8 |
| 20260506171539 | 21 | 182 | 8.0 | 37.0 | 0.00 | 0.00 | 0.00 | 54 | 1006.0 |
| 20260506170037 | 21 | 221 | 11.3 | 27.4 | 0.00 | 0.00 | 0.00 | 54 | 1006.0 |
| 20260506164535 | 21 | 163 | 6.4 | 35.4 | 0.00 | 0.00 | 0.00 | 55 | 1006.4 |
| 20260506163038 | 21 | 177 | 11.3 | 30.6 | 0.00 | 0.00 | 0.00 | 55 | 1006.4 |
| 20260506161535 | 21 | 202 | 11.3 | 33.8 | 0.00 | 0.00 | 0.00 | 55 | 1006.9 |
| 20260506160031 | 21 | 169 | 12.9 | 27.4 | 0.00 | 0.00 | 0.00 | 56 | 1006.9 |
| 20260506154529 | 20 | 156 | 12.9 | 25.7 | 0.00 | 0.00 | 0.00 | 58 | 1007.1 |
| 20260506153028 | 20 | 303 | 11.3 | 25.7 | 0.00 | 0.00 | 0.00 | 59 | 1007.4 |
| 20260506151528 | 20 | 175 | 4.8 | 24.1 | 0.00 | 0.00 | 0.00 | 60 | 1007.5 |
| 20260506150027 | 20 | 202 | 8.0 | 22.5 | 0.00 | 0.00 | 0.00 | 61 | 1007.5 |
| 20260506144524 | 20 | 155 | 8.0 | 19.3 | 0.00 | 0.00 | 0.00 | 62 | 1007.6 |
| 20260506143026 | 19 | 157 | 3.2 | 19.3 | 0.00 | 0.00 | 0.00 | 65 | 1007.5 |
| 20260506141528 | 18 | 220 | 6.4 | 24.1 | 0.00 | 0.00 | 0.00 | 66 | 1007.5 |
| 20260506140020 | 18 | 236 | 4.8 | 22.5 | 0.00 | 0.00 | 0.00 | 68 | 1007.8 |
| 20260506134517 | 18 | 181 | 8.0 | 19.3 | 0.00 | 0.00 | 0.00 | 69 | 1007.5 |
| 20260506133017 | 17 | 238 | 4.8 | 14.5 | 0.00 | 0.00 | 0.00 | 71 | 1008.1 |
| 20260506131513 | 17 | 107 | 6.4 | 19.3 | 0.00 | 0.00 | 0.00 | 72 | 1008.2 |
| 20260506130017 | 17 | 167 | 4.8 | 22.5 | 0.00 | 0.00 | 0.00 | 73 | 1008.0 |
| 20260506124512 | 17 | 227 | 1.6 | 22.5 | 0.00 | 0.00 | 0.00 | 73 | 1008.1 |
| 20260506123014 | 16 | 150 | 8.0 | 20.9 | 0.00 | 0.00 | 0.00 | 74 | 1008.3 |
| 20260506121510 | 16 | 205 | 4.8 | 12.9 | 0.00 | 0.00 | 0.00 | 76 | 1008.2 |
| 20260506120021 | 16 | 63 | 1.6 | 16.1 | 0.00 | 0.00 | 0.00 | 77 | 1008.3 |
| 20260506114510 | 15 | 164 | 4.8 | 19.3 | 0.00 | 0.00 | 0.00 | 78 | 1008.5 |
| 20260506113009 | 15 | 234 | 6.4 | 14.5 | 0.00 | 0.00 | 0.00 | 79 | 1008.9 |
| 20260506111509 | 15 | 221 | 4.8 | 11.3 | 0.00 | 0.00 | 0.00 | 80 | 1008.5 |
| 20260506110008 | 15 | 180 | 3.2 | 14.5 | 0.00 | 0.00 | 0.00 | 80 | 1008.5 |
| 20260506104507 | 14 | 174 | 1.6 | 11.3 | 0.00 | 0.00 | 0.00 | 81 | 1008.5 |
| 20260506103007 | 14 | 225 | 3.2 | 16.1 | 0.00 | 0.00 | 0.00 | 82 | 1008.5 |
| 20260506101506 | 14 | 21 | 3.2 | 9.7 | 0.00 | 0.00 | 0.00 | 81 | 1008.5 |
| 20260506100005 | 14 | 205 | 0.0 | 9.7 | 0.00 | 0.00 | 0.00 | 81 | 1008.4 |
| 20260506094505 | 14 | 138 | 3.2 | 9.7 | 0.00 | 0.00 | 0.00 | 81 | 1008.3 |
| 20260506093004 | 14 | 115 | 1.6 | 12.9 | 0.00 | 0.00 | 0.00 | 80 | 1008.4 |
| 20260506091504 | 14 | 159 | 3.2 | 12.9 | 0.00 | 0.00 | 0.00 | 79 | 1008.4 |
| 20260506090003 | 14 | 158 | 4.8 | 20.9 | 0.00 | 0.00 | 0.00 | 79 | 1008.5 |
| 20260506084602 | 15 | 181 | 4.8 | 12.9 | 0.00 | 0.00 | 0.00 | 78 | 1008.6 |
| 20260506083103 | 15 | 182 | 4.8 | 14.5 | 0.00 | 0.00 | 0.00 | 77 | 1008.5 |
| 20260506081556 | 15 | 182 | 4.8 | 17.7 | 0.00 | 0.00 | 0.00 | 76 | 1008.5 |
| 20260506080107 | 15 | 40 | 6.4 | 16.1 | 0.00 | 0.00 | 0.00 | 75 | 1008.5 |
| 20260506073103 | 15 | 183 | 8.0 | 25.7 | 0.00 | 0.00 | 0.00 | 73 | 1008.3 |
| 20260506071550 | 16 | 238 | 4.8 | 19.3 | 0.00 | 0.00 | 0.00 | 73 | 1008.1 |
| 20260506061540 | 16 | 87 | 8.0 | 24.1 | 0.00 | 0.00 | 0.00 | 69 | 1008.1 |
| 20260506044538 | 17 | 254 | 6.4 | 29.0 | 0.00 | 0.00 | 0.00 | 62 | 1008.5 |
| 20260506043028 | 17 | 79 | 4.8 | 24.1 | 0.00 | 0.00 | 0.00 | 62 | 1008.5 |
| 20260506041538 | 17 | 180 | 8.0 | 19.3 | 0.00 | 0.00 | 0.00 | 62 | 1008.5 |
| 20260506040029 | 17 | 37 | 6.4 | 20.9 | 0.00 | 0.00 | 0.00 | 62 | 1008.5 |
| 20260506034530 | 16 | 141 | 12.9 | 24.1 | 0.00 | 0.00 | 0.00 | 63 | 1008.5 |
| 20260506033023 | 16 | 172 | 4.8 | 20.9 | 0.00 | 0.00 | 0.00 | 63 | 1008.5 |
| 20260506031523 | 16 | 186 | 4.8 | 20.9 | 0.00 | 0.00 | 0.00 | 63 | 1008.5 |
| 20260506030022 | 16 | 196 | 9.7 | 20.9 | 0.00 | 0.00 | 0.00 | 63 | 1008.5 |
| 20260506024523 | 16 | 296 | 8.0 | 17.7 | 0.00 | 0.00 | 0.00 | 63 | 1008.5 |
| 20260506023022 | 16 | 200 | 6.4 | 22.5 | 0.00 | 0.00 | 0.00 | 62 | 1008.6 |
| 20260506021521 | 17 | 231 | 9.7 | 25.7 | 0.00 | 0.00 | 0.00 | 60 | 1008.5 |
| 20260506020020 | 17 | 175 | 9.7 | 27.4 | 0.00 | 0.00 | 0.00 | 59 | 1008.3 |
| 20260506014521 | 17 | 162 | 8.0 | 32.2 | 0.00 | 0.00 | 0.00 | 58 | 1008.0 |
| 20260506013019 | 17 | 223 | 6.4 | 25.7 | 0.00 | 0.00 | 0.00 | 58 | 1007.9 |
| 20260506011536 | 17 | 188 | 9.7 | 30.6 | 0.00 | 0.00 | 0.00 | 58 | 1007.6 |